Wind_Speed
7 7 7 6 5 5 5 5 6 6 6 5 5 6 6 5 5 5 5 5 4 4 4 4 4 5 6 6 6 6 7 8 8 8 8 9 9 9 9 10 10 11 11
7 6 6 6 5 5 5 5 6 5 5 5 5 5 5 5 4 3 3 3 3 3 3 4 4 5 5 6 6 6 7 8 8 8 8 8 9 9 9 10 10 10 11
6 5 5 5 5 5 5 6 6 5 6 5 5 5 5 4 4 4 3 3 3 3 3 4 4 4 5 5 5 6 6 6 6 7 7 8 8 8 8 10 10 10 10
5 5 5 5 5 5 5 6 6 5 5 5 4 4 4 4 4 4 3 3 3 4 4 4 5 5 5 4 4 5 5 5 6 6 6 6 6 7 7 8 8 9 9
5 5 5 5 5 5 5 5 5 5 5 4 4 4 4 4 3 3 3 3 3 4 4 4 4 4 4 4 4 4 5 5 5 5 5 5 5 5 6 7 8 8 8
5 5 5 5 5 5 5 5 5 5 5 5 4 4 4 3 3 3 4 4 3 3 4 5 5 4 4 4 5 6 5 5 5 5 5 5 6 6 6 7 8 8 8
6 5 5 5 5 5 6 6 5 5 6 5 5 4 4 4 4 4 4 4 4 4 4 5 5 5 5 5 6 6 6 5 5 5 5 5 5 6 6 7 8 7 8
6 6 6 6 6 6 6 6 6 5 5 5 5 4 4 5 4 5 5 5 5 5 4 5 5 6 6 6 6 6 6 6 6 6 5 5 5 6 7 7 8 8 9
6 6 6 6 6 6 6 6 6 6 6 5 4 4 5 5 5 5 5 5 5 5 5 5 6 6 7 7 7 7 6 6 6 6 6 5 6 6 7 8 9 9 10
7 7 6 6 7 7 7 6 6 6 6 5 5 5 5 5 5 5 6 5 5 6 5 6 7 7 7 7 8 8 7 7 7 7 7 7 8 8 8 8 9 9 9
9 8 7 7 7 7 7 7 8 8 7 6 6 5 5 5 6 6 6 6 6 6 7 7 7 7 7 7 7 8 8 8 8 8 8 8 8 8 9 9 9 10 10
10 9 9 8 8 8 9 9 9 9 8 8 7 6 6 6 6 7 7 6 6 7 7 8 8 8 8 8 8 8 8 8 8 9 9 9 9 10 10 10 10 10 11
11 10 10 10 10 10 10 9 9 9 9 8 8 8 7 7 7 7 7 7 8 8 9 8 8 8 8 9 9 9 9 8 8 9 9 10 11 11 11 11 11 11 12
12 12 11 11 11 10 10 10 10 10 9 9 9 9 8 8 8 8 8 9 9 9 9 9 9 9 9 10 10 9 9 9 10 11 11 11 11 11 11 11 12 12 13
14 14 13 12 12 12 12 11 11 10 10 10 10 9 9 10 10 10 10 10 10 10 10 10 10 10 9 10 9 9 10 10 11 11 11 11 12 11 12 12 13 14 14
17 16 15 14 14 13 13 13 12 12 11 11 11 11 10 11 11 11 11 11 11 11 11 10 10 10 10 10 10 10 10 11 11 11 11 12 12 12 13 13 14 15 16
18 17 17 17 16 15 14 14 13 13 13 12 12 12 12 12 12 12 12 11 11 11 11 11 11 11 11 11 12 12 12 12 12 12 12 12 13 14 14 15 15 16 17
19 19 19 18 17 16 16 15 15 14 13 13 13 13 13 13 13 13 13 12 12 12 12 12 12 13 13 13 13 13 13 13 13 14 14 14 14 15 15 16 17 18 18
20 20 20 20 19 19 18 18 17 16 15 15 15 14 14 14 14 14 14 14 14 14 13 13 14 14 15 15 15 15 15 15 15 15 16 16 16 17 17 18 18 19 20
21 21 21 21 21 20 20 20 19 18 17 16 16 16 15 15 15 15 15 15 16 15 15 15 15 16 16 17 17 17 17 17 17 17 17 18 19 19 20 20 20 21 21
23 23 23 23 22 22 22 22 21 20 19 19 18 18 17 17 17 17 17 17 17 16 16 16 17 17 17 18 18 17 18 18 19 19 19 20 21 22 22 22 22 23 23
24 25 25 25 25 24 23 23 22 21 21 21 20 20 19 19 19 19 18 18 18 18 18 18 18 18 18 19 19 19 20 20 19 20 21 21 22 23 23 24 24 25 25
26 26 26 26 26 26 25 24 23 23 23 22 22 22 22 21 21 21 20 20 20 20 20 20 20 20 20 20 21 21 21 21 21 22 22 23 23 24 25 25 26 26 27
27 27 27 27 27 28 27 27 26 25 25 25 25 24 23 23 23 23 23 22 22 22 22 22 22 22 22 22 23 23 23 24 24 23 23 24 25 25 26 26 27 28 29
27 27 28 28 28 29 28 28 28 27 26 26 26 25 24 24 24 25 25 24 24 24 24 24 23 23 23 24 25 25 25 25 26 26 26 26 27 27 28 28 28 29 29
26 27 28 29 29 29 29 28 28 28 27 26 26 26 25 25 25 25 26 26 26 26 26 26 26 25 26 26 26 27 27 28 28 28 28 28 29 29 29 29 30 30 30
Wind_Direction
324 322 321 322 318 317 324 328 329 324 322 321 316 312 306 305 307 319 311 305 302 285 277 280 278 277 279 279 277 277 275 269 266 264 261 255 255 255 259 260 257 254 256
326 326 324 325 324 322 323 325 324 323 323 318 318 320 323 322 320 324 329 322 313 299 287 286 284 279 284 281 279 279 280 275 270 266 263 261 262 262 259 259 262 258 258
327 328 327 329 332 335 330 325 321 320 320 315 314 320 324 332 329 327 327 330 311 301 302 297 287 285 288 285 280 282 287 281 276 273 269 265 265 262 259 261 263 265 267
326 330 330 329 337 339 332 328 325 324 328 321 309 313 320 330 331 328 323 314 307 306 305 298 294 296 291 291 290 290 284 285 286 285 281 271 266 266 266 267 267 268 269
325 326 328 330 335 339 332 325 324 318 320 326 316 312 311 319 327 337 335 319 304 307 313 310 301 303 299 297 294 284 288 287 288 289 288 279 271 270 271 272 272 273 273
329 328 325 325 330 335 333 326 321 314 312 318 314 310 307 308 312 322 330 330 323 312 314 314 305 302 300 300 302 289 287 292 289 287 287 284 275 278 278 274 271 272 272
323 326 325 324 327 330 329 324 319 309 305 305 302 299 301 303 302 310 317 317 314 307 307 311 305 301 301 300 305 296 288 290 295 293 285 283 278 284 288 286 278 275 274
315 318 320 323 325 325 323 323 321 319 308 301 299 301 301 298 294 301 307 307 304 301 303 306 305 303 302 302 306 306 297 295 296 289 278 280 284 288 287 287 288 287 286
305 308 308 312 316 313 312 315 315 313 314 308 303 301 301 298 293 293 293 296 297 296 297 301 304 304 300 297 298 300 299 297 295 293 283 287 290 289 289 288 289 289 286
295 297 298 303 307 309 310 310 311 311 311 307 302 299 297 292 291 293 288 288 293 294 296 303 306 303 294 292 292 293 297 292 294 294 292 295 296 296 292 289 289 290 292
285 285 288 295 301 301 305 308 307 304 303 300 294 284 288 290 292 291 284 286 289 291 295 300 303 300 293 288 289 292 294 290 291 292 290 293 296 296 296 293 288 286 290
281 279 282 289 295 299 300 301 301 301 297 292 291 287 281 283 288 295 292 290 290 290 293 298 301 301 292 290 292 291 288 286 288 290 289 288 293 294 292 292 289 287 289
276 274 278 282 288 294 295 296 296 295 292 288 284 286 285 282 284 290 292 293 294 292 291 292 294 297 295 293 292 291 286 284 286 291 291 292 295 296 291 291 289 289 289
275 272 275 278 282 288 291 293 293 290 287 286 284 282 280 281 282 285 290 291 291 291 292 291 291 293 292 292 290 290 286 285 288 293 294 295 295 295 295 295 295 294 294
272 272 273 273 277 281 285 288 290 287 282 282 283 282 282 280 281 282 282 286 290 290 291 289 289 289 288 290 293 288 287 287 289 293 292 293 294 294 295 296 296 297 297
270 269 270 271 274 279 281 283 285 282 278 279 280 280 281 281 280 281 281 283 285 285 288 287 286 286 286 285 288 291 292 291 291 292 291 292 296 295 294 296 297 298 299
270 268 267 269 271 273 275 278 281 279 275 276 278 277 278 281 281 281 282 282 282 283 285 286 283 282 282 284 285 287 289 289 289 290 292 295 296 296 295 295 295 298 300
270 266 265 266 269 271 271 273 276 277 276 276 277 276 277 279 280 280 279 278 278 281 283 284 282 280 280 282 282 283 285 286 284 286 288 291 294 296 298 299 299 299 299
267 268 266 266 267 268 269 270 274 275 275 275 274 274 274 276 277 278 277 276 276 279 281 281 281 279 279 280 281 282 283 281 281 283 284 287 291 294 295 298 299 300 300
265 266 267 266 266 267 267 268 270 270 271 272 272 273 276 277 275 275 275 275 275 274 276 279 280 279 280 281 281 282 282 280 279 282 284 286 289 291 292 295 296 297 299
266 265 267 266 265 266 267 266 267 268 267 267 269 271 274 275 273 273 274 274 274 273 274 278 280 280 281 281 282 283 283 281 281 282 285 287 289 290 291 293 295 296 296
266 266 266 265 265 265 266 265 266 267 267 267 266 267 269 273 274 273 272 272 273 272 273 276 280 281 282 282 283 284 283 282 283 285 286 287 288 289 290 292 294 295 295
266 265 265 265 265 265 265 266 266 266 266 266 266 266 266 268 270 270 270 270 272 273 274 275 278 280 281 282 283 284 284 283 284 285 286 287 288 289 291 292 294 295 296
266 265 264 263 264 265 265 264 264 265 264 263 264 266 266 266 267 267 267 270 271 274 274 274 274 277 279 282 283 283 283 283 283 285 286 287 289 291 291 292 293 296 297
267 266 265 264 264 265 265 264 263 264 264 263 263 263 264 266 267 267 267 268 270 273 274 274 274 275 278 280 281 282 282 283 283 284 285 286 288 289 289 289 291 294 296
267 268 267 265 265 265 264 264 264 264 264 263 263 262 265 268 269 268 267 268 269 271 273 273 274 274 277 279 281 282 282 282 283 284 285 284 287 287 287 289 290 292 295
Height
5852 5851 5850 5849 5848 5847 5846 5846 5845 5844 5843 5843 5842 5841 5840 5839 5839 5838 5837 5837 5836 5836 5836 5836 5836 5836 5836 5835 5835 5835 5835 5835 5835 5836 5836 5837 5837 5838 5838 5839 5839 5839 5840
5851 5850 5849 5848 5847 5846 5846 5845 5844 5843 5843 5842 5841 5840 5839 5839 5838 5837 5837 5836 5836 5835 5835 5835 5834 5834 5834 5834 5834 5834 5834 5833 5833 5834 5834 5835 5836 5835 5836 5836 5836 5837 5837
5850 5849 5848 5848 5847 5846 5845 5844 5844 5843 5842 5841 5841 5840 5839 5838 5837 5837 5836 5836 5835 5835 5835 5834 5834 5833 5833 5833 5832 5833 5832 5832 5832 5832 5832 5833 5833 5833 5834 5834 5834 5834 5835
5850 5849 5848 5847 5846 5845 5844 5844 5843 5842 5841 5841 5840 5839 5839 5838 5837 5836 5836 5835 5835 5834 5834 5833 5833 5833 5833 5832 5832 5832 5832 5831 5831 5831 5831 5831 5832 5832 5832 5832 5832 5832 5832
5849 5848 5847 5846 5845 5844 5844 5843 5842 5842 5841 5840 5839 5839 5838 5837 5837 5836 5835 5835 5834 5834 5833 5833 5833 5832 5832 5832 5831 5831 5831 5830 5830 5830 5830 5830 5830 5831 5831 5830 5830 5830 5830
5848 5847 5846 5845 5844 5844 5843 5842 5841 5841 5840 5839 5839 5838 5838 5837 5836 5836 5835 5834 5834 5833 5833 5832 5832 5832 5831 5831 5831 5830 5830 5830 5829 5829 5829 5829 5829 5829 5829 5829 5828 5828 5828
5847 5846 5845 5845 5844 5843 5842 5841 5840 5840 5839 5838 5838 5837 5837 5836 5836 5835 5835 5834 5833 5833 5832 5832 5831 5831 5830 5830 5830 5830 5829 5828 5828 5828 5828 5827 5828 5828 5827 5827 5827 5827 5826
5846 5845 5845 5844 5843 5842 5841 5840 5840 5839 5838 5838 5837 5836 5836 5836 5835 5835 5834 5833 5833 5832 5832 5831 5830 5830 5829 5829 5829 5828 5828 5827 5827 5827 5827 5826 5826 5826 5826 5826 5825 5825 5825
5845 5844 5843 5843 5842 5841 5840 5839 5839 5838 5838 5837 5836 5836 5835 5835 5834 5834 5833 5833 5832 5831 5831 5830 5830 5829 5828 5828 5828 5827 5827 5826 5826 5825 5825 5825 5824 5824 5824 5824 5824 5824 5823
5843 5843 5842 5841 5841 5840 5839 5838 5837 5837 5836 5836 5835 5834 5834 5834 5833 5833 5832 5832 5831 5831 5830 5830 5829 5828 5827 5827 5827 5826 5825 5825 5825 5824 5823 5823 5823 5822 5822 5822 5821 5821 5821
5841 5841 5840 5840 5839 5838 5838 5837 5836 5835 5835 5834 5834 5833 5833 5832 5832 5831 5831 5831 5830 5830 5829 5828 5828 5827 5826 5825 5825 5824 5824 5823 5823 5822 5822 5822 5821 5820 5820 5819 5819 5818 5818
5838 5838 5838 5838 5838 5837 5836 5836 5835 5834 5833 5833 5832 5832 5831 5831 5831 5830 5830 5829 5828 5828 5828 5827 5826 5825 5824 5824 5823 5823 5822 5821 5821 5821 5820 5820 5819 5818 5817 5817 5816 5816 5815
5836 5835 5835 5835 5835 5835 5834 5834 5833 5832 5831 5831 5831 5830 5830 5829 5829 5828 5828 5827 5827 5826 5826 5825 5824 5823 5823 5822 5821 5820 5820 5819 5819 5818 5818 5817 5817 5816 5815 5814 5814 5813 5812
5832 5832 5832 5832 5832 5832 5832 5831 5831 5830 5829 5829 5828 5828 5828 5827 5827 5826 5826 5825 5825 5824 5823 5823 5822 5821 5820 5820 5819 5818 5818 5817 5817 5816 5815 5815 5814 5813 5813 5812 5811 5810 5809
5829 5829 5829 5829 5829 5829 5829 5828 5828 5827 5827 5826 5826 5826 5825 5825 5824 5824 5823 5823 5822 5822 5821 5820 5819 5819 5818 5817 5817 5816 5815 5815 5814 5813 5813 5812 5811 5810 5810 5809 5808 5806 5805
5825 5825 5825 5825 5825 5825 5825 5825 5824 5824 5824 5823 5823 5823 5822 5822 5822 5821 5820 5820 5819 5819 5818 5817 5817 5816 5815 5815 5814 5814 5813 5812 5811 5811 5810 5809 5808 5807 5806 5805 5804 5803 5801
5820 5820 5821 5821 5821 5821 5821 5821 5821 5820 5820 5820 5819 5819 5819 5819 5818 5818 5817 5817 5816 5816 5815 5814 5814 5813 5813 5812 5811 5811 5810 5809 5808 5808 5807 5806 5805 5804 5803 5801 5800 5799 5797
5815 5815 5816 5816 5816 5816 5816 5817 5817 5816 5816 5816 5816 5815 5815 5815 5815 5814 5814 5813 5813 5812 5812 5811 5810 5810 5809 5809 5808 5807 5807 5806 5805 5804 5803 5802 5801 5800 5799 5797 5796 5794 5792
5809 5810 5810 5810 5811 5811 5811 5812 5812 5812 5812 5811 5811 5811 5811 5811 5810 5810 5810 5809 5809 5809 5808 5807 5807 5806 5805 5805 5804 5803 5803 5802 5801 5800 5799 5798 5797 5795 5794 5793 5791 5789 5787
5803 5804 5804 5804 5805 5805 5806 5806 5806 5807 5807 5807 5806 5806 5806 5806 5806 5806 5805 5805 5805 5804 5804 5803 5803 5802 5801 5800 5799 5799 5798 5797 5796 5795 5795 5793 5792 5791 5789 5788 5786 5784 5782
5797 5797 5798 5798 5799 5799 5799 5800 5800 5800 5801 5801 5801 5801 5801 5801 5801 5801 5800 5800 5800 5799 5799 5799 5798 5797 5797 5796 5795 5794 5793 5792 5791 5790 5789 5788 5787 5785 5783 5782 5780 5778 5776
5790 5790 5791 5791 5792 5792 5793 5793 5793 5794 5794 5794 5795 5795 5795 5795 5795 5795 5795 5795 5794 5794 5794 5794 5793 5792 5791 5790 5789 5788 5787 5786 5786 5785 5783 5782 5780 5779 5777 5775 5774 5771 5769
5782 5783 5783 5783 5784 5784 5785 5786 5786 5786 5787 5787 5788 5788 5789 5789 5789 5789 5789 5789 5789 5788 5788 5788 5787 5786 5786 5785 5784 5782 5781 5780 5779 5778 5777 5775 5774 5772 5770 5768 5766 5764 5762
5774 5774 5775 5775 5776 5776 5777 5778 5778 5779 5779 5780 5780 5781 5781 5781 5782 5782 5782 5782 5782 5782 5782 5781 5781 5780 5779 5778 5777 5776 5775 5774 5773 5771 5770 5768 5767 5765 5763 5761 5759 5756 5754
5766 5766 5766 5766 5767 5768 5768 5769 5770 5770 5771 5772 5773 5773 5773 5773 5774 5774 5774 5774 5774 5774 5774 5774 5773 5773 5772 5771 5770 5769 5768 5767 5765 5764 5763 5761 5759 5757 5755 5753 5750 5748 5745
5757 5757 5757 5757 5758 5758 5759 5760 5761 5761 5762 5763 5764 5765 5765 5766 5766 5766 5766 5766 5766 5766 5766 5766 5766 5765 5765 5764 5763 5762 5760 5759 5758 5756 5754 5753 5751 5749 5747 5745 5742 5739 5737